Regional Weather Roundup
Issued by NWS Green Bay, WI

Home | Current Version | Previous Version | Text Only | Print | Product List | Glossary On
Versions: 1 2 3 4 5 6 7 8 9 10 11 12 13 14 15 16 17 18 19 20 21 22 23 24 25 26 27 28 29 30 31 32 33 34 35 36 37 38 39 40 41 42 43 44 45 46 47 48 49 50
000
ASUS43 KGRB 310800
RWRGRB

NORTH-CENTRAL AND NORTHEAST WISCONSIN REGIONAL WEATHER ROUNDUP
NATIONAL WEATHER SERVICE GREEN BAY WI
300 AM CDT MON AUG 31 2015

WIZ005-009-010>012-018-019-310900-
NORTH CENTRAL WISCONSIN

CITY           SKY/WX    TMP DP  RH WIND       PRES   REMARKS
IRONWOOD       PTCLDY    64  63  94 SW3       29.92R
MANITOWISH WTR NOT AVBL
ARBOR VITAE    NOT AVBL
EAGLE RIVER    NOT AVBL
LAND O LAKES   NOT AVBL
RHINELANDER    FOG       63  62  97 SW6       30.02R VSB 1
PHILLIPS       CLOUDY    64  64 100 SW8       29.99S
ANTIGO         NOT AVBL
TOMAHAWK       NOT AVBL
MERRILL        CLOUDY    62  62 100 SW3       30.02S FOG
$$

WIZ013-073-310900-
NORTHEAST WISCONSIN

CITY           SKY/WX    TMP DP  RH WIND       PRES   REMARKS
IRON MOUNTAIN  CLEAR     62  60  93 N3        29.96R
MARINETTE      CLEAR     63  61  94 SW6       29.97R
$$

WIZ017-030-035>037-045-310900-
CENTRAL WISCONSIN

CITY           SKY/WX    TMP DP  RH WIND       PRES   REMARKS
MEDFORD        NOT AVBL
WAUSAU         CLEAR     64  62  93 SW10      30.00S
MOSINEE        NOT AVBL
MARSHFIELD     FOG       61  58  90 SW3       30.01S VSB 1/4
WISC RAPIDS    CLEAR     61  59  94 SW3       30.03R FOG
STEVENS POINT  NOT AVBL
WAUPACA        NOT AVBL
SHAWANO        NOT AVBL
CLINTONVILLE   FOG       59  59 100 SW5       30.01R VSB 1
WAUTOMA        FOG       61  61 100 CALM      30.02S VSB 1/4
$$

WIZ038-039-048-051-310900-
FOX VALLEY

CITY           SKY/WX    TMP DP  RH WIND       PRES   REMARKS
NWS GREEN BAY  CLEAR     63  61  93 SW5       30.00S FOG
APPLETON       NOT AVBL
OSHKOSH        CLEAR     62  60  93 SW3       30.01R
FOND DU LAC    CLEAR     61  60  97 CALM      30.02R FOG
$$

WIZ022-050-052-310900-
EAST CENTRAL WISCONSIN

CITY           SKY/WX    TMP DP  RH WIND       PRES   REMARKS
EPHRAIM        FAIR      64  63  96 W9        29.97R
STURGEON BAY   CLEAR     64  59  82 SW7       30.01S
MANITOWOC      NOT AVBL
SHEBOYGAN      CLEAR     58  58 100 SW5       30.01S FOG
$$

LMZ563-521-522-541>543-310900-
LAKESHORE

STATION/POSITION TIME  TEMP    WIND        PRES    VSBY  WAVE
                       AIR SEA DIR/SP/G                  HT/PER
                 (UTC) (F)     (DEG/KT/KT) (MB)    (MI)  (FT/S)
SHEBOYGAN LKSHOR 0700   62     220/  4/  4 1016.4F
NORTHPORT PIER   0702   62     130/  1/  5 1014.6S
N MID LAKE BUOY  0650   64 65  210/ 14/ 16 1014.3F         3/ 5
CHAMBERS ISLAND  0700   64     180/  7/ 11 1014.9S
$$



USA.gov is the U.S. government's official web portal to all federal, state and local government web resources and services.